Weather History for HKGA - November, 2012

Change the Weather History Date:

Monday, November 5, 2012

  Actual Average Record
Temperature  
Mean Temperature 84 °F -  
Max Temperature 92 °F 97 °F - ()
Min Temperature 75 °F 74 °F - ()
Cooling Degree Days 18    
Growing Degree Days 34 (Base 50)    
Moisture  
Dew Point 71 °F    
Average Humidity 69    
Maximum Humidity 89    
Minimum Humidity 39    
Precipitation  
Precipitation 0.00 in - - ()
Sea Level Pressure  
Sea Level Pressure 29.86 in    
Wind  
Wind Speed 5 mph ()    
Max Wind Speed 17 mph    
Max Gust Speed -    
Visibility 7.9 miles    
Events      
T = Trace of Precipitation, MM = Missing Value Source: Averaged Metar Reports

Daily Weather History Graph

Daily Weather History Graph

Search for Another Location

Airport or City:

Trip Planner

Search our weather history database for the weather conditions in past years. The results will help you decide how hot, cold, wet, or windy it might be!

Date:

Astronomy

Nov. 05, 2012 Rise Set
Actual Time 6:01 AM EAT 6:09 PM EAT
Civil Twilight 5:39 AM EAT 6:30 PM EAT
Nautical Twilight 5:14 AM EAT 6:55 PM EAT
Astronomical Twilight 4:49 AM EAT 7:20 PM EAT
Moon 11:26 PM EAT (11/5) 11:01 AM EAT (11/5)
Length of Visible Light 12h 51m
Length of Day
12h 08m
Waning Gibbous, 66% of the Moon is Illuminated
Nov 5
Waning Gibbous
Nov 7
Last Quarter
Nov 14
New
Nov 20
First Quarter
Nov 28
Full

Hourly Weather History & Observations

Time (EAT) Temp. Heat Index Dew Point Humidity Pressure Visibility Wind Dir Wind Speed Gust Speed Precip Events Conditions
1:00 AM 77.0 °F - 73.4 °F 89% 29.89 in 6.2 mi Calm Calm - N/A   Partly Cloudy
2:00 AM 77.0 °F - 71.6 °F 83% 29.89 in 6.2 mi South 5.8 mph - N/A   Scattered Clouds
3:00 AM 76 °F - 72 °F 84% 29.87 in 19 mi SSW 3.5 mph - -   Mostly Cloudy
4:00 AM 75.2 °F - 71.6 °F 89% 29.86 in 6.2 mi SSW 5.8 mph - N/A   Mostly Cloudy
5:00 AM 75.2 °F - 71.6 °F 89% 29.89 in 6.2 mi Calm Calm - N/A   Mostly Cloudy
7:00 AM 75.2 °F - 71.6 °F 89% 29.92 in 6.2 mi SW 5.8 mph - N/A   Mostly Cloudy
8:00 AM 77.0 °F - 73.4 °F 89% 29.95 in 6.2 mi SW 9.2 mph - N/A   Mostly Cloudy
9:00 AM 79 °F - 72 °F 73% 29.94 in 25 mi South 9.2 mph - -   Mostly Cloudy
10:00 AM 82.4 °F 87.2 °F 71.6 °F 70% 29.95 in 6.2 mi South 13.8 mph - N/A   Mostly Cloudy
11:00 AM 86.0 °F 91.8 °F 71.6 °F 62% 29.89 in 6.2 mi South 17.3 mph - N/A   Mostly Cloudy
1:00 PM 89.6 °F 96.2 °F 71.6 °F 55% 29.83 in - North - - N/A   Mostly Cloudy
2:00 PM 91.4 °F 96.8 °F 69.8 °F 49% 29.83 in 6.2 mi South 5.8 mph - N/A   Scattered Clouds
3:00 PM 92 °F - 70 °F 39% 29.79 in 25 mi SSE 5.8 mph - -   Partly Cloudy
4:00 PM 91.4 °F 96.8 °F 69.8 °F 49% 29.80 in 6.2 mi South 9.2 mph - N/A   Partly Cloudy
5:00 PM 91.4 °F 96.8 °F 69.8 °F 49% 29.80 in 6.2 mi South 4.6 mph - N/A   Partly Cloudy
7:00 PM 87.8 °F 95.6 °F 73.4 °F 62% 29.77 in 6.2 mi Calm Calm - N/A   Unknown
8:00 PM 86.0 °F 90.4 °F 69.8 °F 58% 29.83 in 6.2 mi SSE 4.6 mph - N/A   Partly Cloudy
9:00 PM 85 °F - 71 °F 54% 29.83 in 19 mi SSE 11.5 mph - -   Scattered Clouds
10:00 PM - - - N/A% 29.86 in - South 9.2 mph - N/A   Clear
11:00 PM 82.4 °F 87.2 °F 71.6 °F 70% - - SSE 5.8 mph - N/A   Clear